Wind_Speed
27 25 24 18 13 13 14 14 16 17 21 22 21 19 18 19 18 16 15 14 14 14 13 12 13 14 15 15 15 16 17 18 19 19 20 21 22 22 23 24 25 25 26 27
30 25 23 19 14 14 17 17 18 20 24 25 23 21 20 20 19 18 18 16 16 16 16 16 16 16 16 17 19 20 20 21 21 22 23 23 24 25 25 26 26 27 29 30
32 26 25 24 20 19 20 20 21 22 25 26 25 22 21 20 19 19 20 19 20 19 19 19 19 19 20 20 21 23 24 24 25 25 26 25 26 27 28 29 30 30 31 32
32 29 29 26 25 24 23 24 25 25 26 27 25 23 22 22 21 21 22 22 22 22 22 22 22 22 23 23 25 26 27 27 28 28 29 30 30 31 32 33 33 33 34 34
32 30 30 28 28 26 25 26 26 25 26 25 24 24 23 22 22 22 22 22 23 23 23 24 24 26 26 27 28 29 30 32 32 32 33 34 34 35 35 35 36 36 36 37
33 31 30 30 30 28 28 28 26 25 26 26 24 23 21 21 22 22 22 23 23 25 26 26 27 28 28 30 31 32 34 35 35 36 36 36 36 37 38 38 39 39 40 41
32 32 32 33 32 28 25 25 24 24 24 25 25 23 22 21 21 22 23 24 25 25 27 28 29 30 31 32 34 35 36 36 37 37 37 37 38 38 38 39 40 41 42 42
35 33 34 33 30 27 25 25 24 24 25 24 25 24 23 23 23 23 23 24 25 27 28 29 30 32 33 35 36 37 37 37 38 39 39 39 39 39 39 41 41 42 42 43
35 36 35 35 33 30 27 23 23 25 26 25 26 26 26 25 25 25 25 26 27 28 29 30 31 33 34 35 37 37 37 38 38 39 40 39 39 39 40 40 41 43 44 45
28 29 30 32 32 28 23 24 25 25 26 26 26 27 26 27 27 27 27 28 28 29 30 31 32 33 33 34 35 36 37 37 36 37 37 37 38 38 40 42 43 45 46 47
25 27 26 25 25 21 21 23 24 25 25 26 26 26 27 28 28 28 29 29 30 31 31 31 32 33 34 34 35 36 36 36 37 37 38 38 39 40 42 43 44 46 48 50
21 21 21 21 20 20 20 21 23 25 26 26 26 27 28 28 29 29 29 31 31 32 33 33 33 33 34 35 36 37 37 37 38 39 40 41 42 43 44 46 47 49 51 53
18 17 17 19 19 19 20 21 22 24 25 26 27 28 28 29 29 30 32 32 33 33 33 34 35 36 36 37 38 39 39 39 40 41 42 43 45 46 48 49 51 53 55 57
18 18 18 19 19 19 21 22 23 24 25 26 27 28 29 30 31 31 32 33 34 35 36 36 37 37 38 38 38 38 39 41 42 42 44 46 47 49 51 53 55 58 60 62
17 18 19 19 20 20 21 22 22 23 25 26 27 28 29 30 31 32 33 34 35 37 37 37 38 38 38 39 40 41 42 43 44 45 46 48 50 52 55 57 58 60 61 62
15 17 18 19 20 20 21 22 23 24 25 26 27 28 30 31 32 33 34 35 35 36 37 38 39 39 40 41 42 43 44 45 46 47 49 50 52 54 55 56 57 58 58 58
17 18 18 19 20 21 22 23 24 24 26 27 28 29 30 32 32 33 34 36 37 38 39 39 40 40 41 42 44 45 46 47 49 50 51 52 53 54 54 54 54 54 54 53
18 18 19 20 21 21 22 23 24 25 27 28 29 30 31 32 34 35 36 37 38 39 40 41 42 42 42 43 45 46 47 48 49 50 51 51 51 51 50 50 50 49 48 47
19 19 20 21 22 23 24 25 26 27 28 30 31 32 33 35 36 37 38 39 40 41 42 42 43 43 44 45 46 47 48 48 49 49 48 48 47 46 46 46 45 43 42 41
20 21 22 23 24 25 26 27 28 29 30 31 32 33 35 36 38 39 40 41 42 43 43 44 44 45 46 46 47 48 47 47 46 46 45 43 43 42 42 41 39 38 38 37
22 23 24 25 26 27 28 29 30 31 33 34 35 36 38 39 40 41 42 43 43 43 44 44 44 45 46 46 46 46 45 44 43 42 40 40 39 38 37 36 35 35 34 33
24 25 26 27 28 30 31 32 33 34 35 36 37 39 40 41 41 41 41 41 42 43 43 44 43 43 43 43 43 42 41 40 40 38 37 36 35 34 33 32 32 31 30 30
26 27 29 30 31 33 33 35 36 36 37 38 39 39 40 40 40 40 41 41 41 41 41 41 41 40 40 39 39 38 37 36 35 34 34 33 31 30 29 29 28 27 26 26
28 30 30 32 33 34 35 36 36 37 37 38 38 39 39 39 39 39 39 38 38 38 37 38 38 37 37 36 35 34 33 32 31 31 30 29 27 26 26 25 25 24 23 23
30 31 32 33 35 36 36 36 36 37 38 39 39 39 38 38 37 36 36 36 35 36 36 36 35 34 34 33 32 30 30 29 28 27 25 24 23 24 23 23 22 21 21 20
32 33 33 34 34 35 36 37 37 38 38 37 36 36 36 35 34 33 33 33 33 33 33 32 32 31 30 29 28 28 27 26 25 24 23 22 22 22 21 21 21 20 20 19
33 33 34 35 35 36 36 36 36 36 35 35 34 33 32 31 30 30 30 30 30 29 29 29 29 29 28 27 26 25 24 23 22 22 21 21 21 20 20 20 20 20 19 19
Wind_Direction
240 247 260 268 260 247 254 259 259 265 272 276 279 285 291 295 290 284 279 278 280 281 277 275 274 272 269 267 267 268 268 266 264 264 264 265 265 266 267 268 270 272 274 276
237 237 251 259 252 250 253 260 262 261 265 270 276 278 287 290 286 280 278 278 278 279 278 277 276 276 273 271 271 272 271 271 270 267 266 268 268 268 270 272 273 275 277 279
234 232 238 245 246 249 256 260 262 259 263 270 275 278 284 286 284 279 276 275 274 274 276 275 276 276 279 278 275 276 277 277 276 274 271 270 270 272 273 275 276 277 278 279
232 231 236 239 242 245 249 256 259 262 267 272 274 276 279 282 282 280 278 276 277 277 275 273 274 275 275 277 279 278 278 280 280 280 279 276 275 276 276 276 277 278 280 280
230 233 239 240 241 241 245 249 254 260 268 272 273 275 276 278 279 280 280 280 280 279 278 278 278 277 276 279 280 278 278 278 278 278 278 277 278 278 278 278 279 280 281 281
230 229 236 238 241 244 246 248 252 259 265 270 272 275 276 277 278 280 279 279 280 281 281 280 281 279 279 282 282 282 279 278 278 279 279 276 277 277 279 281 281 282 281 281
228 232 238 243 246 245 244 248 254 260 265 267 273 277 280 278 278 279 279 279 281 283 283 283 283 282 283 284 285 284 281 279 279 278 278 278 279 281 283 284 284 284 285 285
230 231 237 243 246 244 248 248 252 259 263 266 273 276 279 280 280 282 281 282 282 284 284 284 284 284 284 284 285 284 282 280 281 280 279 278 279 281 283 285 286 288 288 289
228 232 239 245 248 248 248 250 254 259 265 269 273 277 280 282 282 283 285 284 284 284 284 285 285 285 284 284 284 284 283 283 282 281 278 278 281 283 286 289 289 289 289 289
227 234 241 244 248 250 249 251 258 261 266 269 273 276 278 281 283 284 285 285 285 284 285 286 287 287 286 286 285 284 284 284 284 284 283 283 285 286 288 289 290 289 288 289
238 237 243 242 244 251 256 257 259 264 268 272 275 277 280 282 283 284 284 285 284 284 286 286 286 287 286 287 287 288 287 285 285 286 287 286 286 287 288 289 290 291 291 292
246 249 252 255 256 259 261 263 265 266 271 274 276 278 280 282 284 284 286 286 286 286 286 286 285 286 287 287 287 287 286 286 286 287 287 288 288 289 289 290 291 291 292 292
248 253 258 261 262 264 266 267 268 269 272 275 278 280 282 283 284 284 287 289 288 288 288 288 288 288 288 288 287 287 287 287 288 290 291 291 291 292 292 292 292 292 293 293
257 260 263 265 266 268 269 271 272 274 276 278 280 282 283 284 285 287 288 290 292 293 292 292 293 292 292 290 288 288 290 290 291 291 292 292 292 293 293 294 294 295 295 295
260 264 265 267 268 269 272 275 277 278 279 280 281 283 284 285 287 289 291 292 294 294 293 293 294 294 295 294 293 292 292 292 292 293 294 294 295 295 296 296 297 298 298 298
267 269 270 271 272 275 277 278 279 280 281 282 283 284 286 287 288 290 292 294 295 296 297 297 296 296 296 296 297 296 296 296 296 296 296 297 297 298 298 299 299 300 299 299
267 269 271 274 275 276 277 279 281 282 283 284 286 287 288 289 290 291 293 294 295 296 296 297 296 297 298 298 299 299 299 299 300 300 299 299 299 300 300 301 301 301 301 301
271 273 275 276 278 279 280 282 283 284 285 285 287 288 289 291 292 292 294 295 296 297 297 297 298 298 299 300 301 301 302 302 302 302 302 302 301 301 302 302 301 301 302 302
272 274 276 278 281 283 285 286 287 288 288 289 289 289 290 291 293 294 295 296 297 298 299 299 300 300 301 302 302 303 303 303 302 302 302 302 301 302 302 302 303 303 304 305
275 277 279 282 284 285 285 286 288 288 289 290 290 291 292 293 295 296 297 298 299 300 301 302 302 302 303 303 304 303 303 303 303 303 302 302 302 303 304 304 305 305 306 307
276 278 281 284 285 286 287 288 289 290 290 291 292 293 294 295 296 297 297 298 299 300 300 301 302 302 303 303 303 303 303 303 303 303 303 303 304 304 305 305 306 307 307 308
279 280 282 284 285 286 287 288 289 290 291 292 293 294 296 296 297 298 298 299 300 300 301 302 302 303 303 304 304 304 304 304 304 303 304 304 304 305 306 307 308 308 309 311
280 281 282 284 286 287 288 289 290 291 293 293 294 295 296 297 298 299 300 300 301 302 303 303 304 304 305 305 306 306 306 306 305 305 305 305 305 306 308 310 310 311 311 313
281 282 283 285 286 287 288 290 292 293 294 295 295 297 298 299 300 300 301 302 302 303 303 304 304 305 306 306 306 306 307 307 307 307 308 307 307 309 311 312 313 313 314 315
282 283 283 285 286 287 289 290 291 292 293 295 296 297 297 298 299 299 300 301 301 301 302 304 305 306 307 307 307 307 307 308 308 309 310 310 310 312 314 316 316 316 316 317
282 283 284 285 286 288 289 291 292 293 294 295 296 297 297 298 298 298 299 300 301 302 303 304 305 306 307 308 307 307 308 308 309 310 310 310 312 313 315 318 320 320 319 319
282 283 284 286 288 289 290 292 293 294 295 295 296 296 297 298 298 299 300 301 302 303 304 306 307 308 309 309 309 309 309 309 310 311 312 312 312 313 315 317 320 320 320 319
Height
5838 5838 5838 5837 5838 5840 5842 5843 5844 5843 5840 5838 5837 5837 5837 5837 5837 5837 5837 5837 5837 5837 5837 5837 5837 5838 5838 5838 5839 5839 5840 5840 5840 5841 5841 5842 5842 5842 5842 5842 5842 5842 5842 5842
5831 5834 5834 5833 5835 5836 5838 5838 5839 5839 5836 5834 5835 5833 5834 5834 5834 5834 5834 5834 5834 5834 5834 5834 5834 5834 5834 5834 5835 5835 5835 5835 5835 5835 5835 5835 5835 5835 5835 5835 5835 5835 5835 5834
5824 5827 5828 5829 5831 5832 5832 5832 5833 5833 5831 5830 5830 5829 5830 5830 5830 5830 5830 5829 5830 5829 5831 5831 5830 5830 5830 5830 5830 5830 5830 5829 5829 5829 5828 5828 5828 5828 5828 5827 5827 5826 5826 5825
5816 5820 5821 5825 5826 5826 5826 5827 5826 5825 5825 5825 5825 5825 5825 5826 5825 5825 5825 5824 5825 5825 5825 5825 5825 5825 5824 5824 5824 5824 5824 5823 5823 5823 5822 5821 5821 5821 5820 5819 5818 5817 5816 5815
5808 5811 5814 5818 5817 5817 5818 5819 5818 5819 5819 5819 5819 5820 5821 5821 5820 5820 5820 5819 5820 5820 5820 5819 5819 5819 5818 5817 5818 5817 5816 5816 5815 5815 5813 5813 5813 5812 5811 5810 5809 5807 5806 5805
5800 5805 5807 5809 5808 5808 5812 5811 5812 5813 5814 5813 5814 5814 5815 5815 5815 5814 5814 5814 5814 5814 5814 5813 5813 5812 5811 5811 5810 5809 5809 5807 5805 5805 5803 5803 5803 5802 5801 5800 5798 5797 5795 5793
5793 5797 5799 5800 5800 5802 5804 5804 5805 5807 5808 5807 5807 5809 5809 5809 5809 5809 5809 5808 5808 5808 5807 5806 5806 5805 5804 5804 5803 5801 5800 5798 5797 5795 5794 5794 5792 5791 5790 5789 5787 5785 5783 5781
5787 5790 5793 5790 5793 5795 5796 5795 5798 5800 5801 5802 5802 5801 5802 5803 5803 5803 5802 5802 5802 5802 5801 5800 5799 5798 5796 5795 5794 5792 5790 5789 5788 5786 5784 5784 5783 5781 5779 5778 5776 5774 5772 5770
5778 5783 5784 5786 5787 5788 5788 5788 5791 5793 5795 5796 5796 5796 5796 5796 5796 5796 5795 5795 5795 5794 5793 5792 5791 5790 5788 5786 5785 5783 5781 5780 5778 5776 5774 5773 5771 5770 5768 5766 5764 5762 5760 5757
5769 5773 5776 5779 5780 5781 5780 5784 5786 5787 5788 5790 5790 5790 5789 5789 5789 5789 5788 5788 5787 5786 5785 5784 5783 5781 5779 5778 5776 5774 5772 5770 5768 5766 5764 5763 5761 5759 5757 5755 5752 5749 5747 5744
5764 5767 5769 5770 5773 5774 5776 5778 5780 5781 5782 5783 5784 5784 5783 5782 5782 5781 5781 5780 5779 5778 5776 5775 5774 5772 5771 5769 5767 5764 5762 5760 5758 5756 5754 5752 5750 5748 5746 5743 5740 5737 5733 5730
5760 5762 5763 5764 5766 5769 5771 5772 5773 5775 5776 5776 5776 5776 5776 5775 5774 5774 5773 5772 5771 5770 5768 5767 5765 5763 5761 5759 5757 5755 5752 5750 5748 5745 5743 5741 5738 5736 5732 5730 5726 5723 5719 5715
5756 5757 5758 5760 5762 5764 5766 5768 5769 5769 5769 5770 5769 5769 5768 5768 5767 5766 5765 5764 5762 5761 5759 5757 5755 5753 5751 5749 5747 5744 5742 5739 5736 5734 5731 5728 5725 5722 5719 5715 5711 5707 5703 5699
5752 5754 5755 5756 5758 5759 5761 5762 5762 5762 5762 5762 5762 5762 5761 5760 5759 5758 5757 5755 5753 5751 5749 5747 5745 5743 5741 5738 5736 5733 5730 5727 5725 5721 5718 5715 5711 5707 5703 5699 5695 5689 5685 5679
5748 5750 5751 5752 5753 5754 5755 5756 5756 5756 5756 5756 5755 5755 5754 5753 5751 5750 5748 5746 5744 5742 5739 5737 5735 5732 5730 5727 5724 5721 5718 5715 5712 5708 5705 5701 5697 5692 5687 5682 5677 5671 5666 5660
5744 5746 5747 5748 5749 5749 5750 5750 5750 5750 5749 5749 5748 5747 5746 5744 5743 5741 5739 5737 5735 5732 5729 5727 5724 5722 5719 5715 5712 5709 5705 5702 5698 5694 5690 5686 5681 5676 5671 5666 5660 5654 5647 5641
5741 5742 5742 5743 5743 5744 5744 5743 5743 5743 5742 5741 5740 5739 5738 5736 5734 5732 5730 5727 5725 5722 5719 5717 5713 5710 5707 5704 5700 5696 5692 5688 5684 5680 5675 5671 5665 5660 5655 5649 5643 5637 5631 5625
5736 5737 5737 5737 5738 5738 5737 5737 5736 5736 5735 5734 5732 5731 5729 5727 5725 5723 5720 5718 5715 5712 5709 5706 5702 5699 5696 5692 5688 5684 5679 5674 5670 5665 5660 5655 5650 5644 5639 5633 5628 5622 5617 5611
5731 5731 5731 5731 5731 5731 5730 5730 5729 5728 5727 5726 5724 5722 5720 5718 5716 5713 5710 5707 5704 5701 5698 5694 5690 5687 5683 5679 5674 5670 5666 5661 5656 5651 5645 5640 5635 5630 5625 5619 5614 5609 5603 5598
5725 5725 5725 5725 5725 5724 5723 5723 5722 5720 5719 5717 5715 5713 5711 5709 5706 5703 5700 5696 5693 5689 5686 5682 5678 5674 5670 5665 5660 5656 5652 5647 5642 5637 5632 5627 5622 5617 5612 5607 5602 5597 5593 5588
5719 5719 5718 5718 5717 5716 5715 5714 5713 5711 5710 5708 5706 5703 5701 5698 5695 5692 5689 5685 5681 5677 5674 5670 5666 5661 5656 5652 5647 5643 5638 5634 5629 5624 5619 5615 5611 5606 5601 5597 5592 5588 5583 5578
5712 5712 5711 5710 5709 5708 5707 5705 5704 5702 5700 5698 5695 5693 5690 5687 5684 5680 5677 5674 5670 5666 5662 5658 5653 5649 5644 5640 5635 5630 5626 5622 5617 5613 5609 5605 5600 5596 5592 5588 5583 5579 5575 5571
5705 5704 5703 5702 5701 5699 5698 5696 5694 5692 5690 5687 5685 5682 5679 5675 5672 5669 5666 5662 5658 5654 5650 5646 5641 5637 5633 5628 5624 5620 5616 5611 5607 5603 5599 5595 5591 5588 5584 5580 5576 5572 5568 5564
5697 5696 5694 5693 5691 5689 5688 5686 5684 5681 5679 5676 5674 5671 5668 5665 5661 5658 5655 5651 5647 5643 5639 5635 5631 5627 5623 5619 5615 5611 5607 5603 5599 5595 5591 5587 5584 5580 5577 5573 5570 5566 5562 5559
5688 5687 5685 5684 5682 5680 5678 5676 5674 5671 5669 5666 5663 5660 5657 5654 5651 5648 5644 5641 5637 5634 5630 5626 5622 5618 5614 5610 5606 5602 5599 5595 5591 5588 5584 5581 5578 5575 5571 5568 5564 5561 5557 5554
5679 5677 5675 5674 5672 5670 5668 5665 5663 5661 5658 5655 5653 5650 5647 5644 5641 5638 5635 5632 5628 5625 5621 5617 5614 5610 5606 5603 5599 5595 5592 5589 5585 5582 5579 5576 5573 5569 5566 5563 5560 5556 5553 5550
5669 5667 5666 5664 5662 5660 5658 5655 5653 5651 5648 5645 5643 5640 5638 5635 5632 5629 5626 5623 5620 5617 5613 5610 5606 5603 5599 5596 5593 5589 5586 5583 5580 5577 5574 5571 5568 5565 5562 5559 5556 5552 5549 5546